When you browse on this site, cookies collect data to enhance your experience and personalize the content and advertising you see.
Visit our Privacy Policy to learn more. By continuing to use the site, you agree to this use of cookies and data.
  • In United Kingdom
  • List of Countries
  • For 7 days
  • Water Temperature
  • Satellite Maps
  • Weather Map
  • Weather Widgets
  • user-avatar
    Login

    Hourly Weather Modica

    Today, 22 May, Wednesday

    Time Temperature Precipitation Wind Pressure Humidity
    00:00 +15°C° 0 mm 1 mps 725 mmHg 61%
    01:00 +15°C° 0 mm 1 mps 725 mmHg 62%
    02:00 +15°C° 0 mm 1 mps 725 mmHg 63%
    03:00 +15°C° 0 mm 1 mps 725 mmHg 63%
    04:00 +14°C° 0 mm 1 mps 725 mmHg 64%
    05:00 +15°C° 0 mm 1 mps 725 mmHg 61%
    06:00 +16°C° 0 mm 1 mps 726 mmHg 58%
    07:00 +17°C° 0 mm 2 mps 725 mmHg 54%
    08:00 +19°C° 0 mm 3 mps 726 mmHg 49%
    09:00 +21°C° 0 mm 3 mps 726 mmHg 45%
    10:00 +22°C° 0 mm 4 mps 726 mmHg 40%
    11:00 +23°C° 0 mm 5 mps 726 mmHg 40%
    12:00 +23°C° 0 mm 5 mps 726 mmHg 40%
    13:00 +25°C° 0 mm 4 mps 726 mmHg 36%
    14:00 +23°C° 0 mm 5 mps 726 mmHg 38%
    15:00 +23°C° 0 mm 5 mps 726 mmHg 40%
    16:00 +22°C° 0 mm 6 mps 726 mmHg 43%
    17:00 +21°C° 0.1 mm 5 mps 726 mmHg 52%
    18:00 +19°C° 0.1 mm 4 mps 725 mmHg 61%
    19:00 +17°C° 0.1 mm 3 mps 725 mmHg 70%
    20:00 +17°C° 0.1 mm 3 mps 725 mmHg 75%
    21:00 +16°C° 0.1 mm 2 mps 725 mmHg 81%
    22:00 +15°C° 0.1 mm 2 mps 726 mmHg 87%
    23:00 +15°C° 0 mm 2 mps 726 mmHg 87%

    Tomorrow, 23 May, Thursday

    Time Temperature Precipitation Wind Pressure Humidity
    00:00 +15°C° 0 mm 2 mps 725 mmHg 87%
    01:00 +15°C° 0 mm 2 mps 725 mmHg 87%
    02:00 +14°C° 0 mm 2 mps 725 mmHg 87%
    03:00 +14°C° 0 mm 2 mps 725 mmHg 86%
    04:00 +14°C° 0 mm 1 mps 725 mmHg 86%
    05:00 +15°C° 0 mm 1 mps 725 mmHg 79%
    06:00 +16°C° 0 mm 1 mps 725 mmHg 72%
    07:00 +18°C° 0 mm 1 mps 725 mmHg 65%
    08:00 +20°C° 0 mm 1 mps 726 mmHg 58%
    09:00 +20°C° 0 mm 2 mps 726 mmHg 51%
    10:00 +23°C° 0 mm 2 mps 726 mmHg 44%
    11:00 +24°C° 0 mm 3 mps 726 mmHg 40%
    12:00 +23°C° 0 mm 4 mps 726 mmHg 37%
    13:00 +25°C° 0 mm 5 mps 726 mmHg 34%
    14:00 +23°C° 0 mm 5 mps 726 mmHg 35%
    15:00 +23°C° 0 mm 5 mps 726 mmHg 36%
    16:00 +22°C° 0 mm 6 mps 725 mmHg 38%
    17:00 +21°C° 0 mm 5 mps 725 mmHg 42%
    18:00 +20°C° 0 mm 5 mps 725 mmHg 47%
    19:00 +17°C° 0 mm 5 mps 725 mmHg 52%
    20:00 +17°C° 0 mm 4 mps 725 mmHg 55%
    21:00 +17°C° 0 mm 3 mps 725 mmHg 58%
    22:00 +16°C° 0 mm 2 mps 725 mmHg 61%
    23:00 +15°C° 0 mm 2 mps 725 mmHg 62%

    Day after tomorrow, 24 May, Friday

    Time Temperature Precipitation Wind Pressure Humidity
    00:00 +15°C° 0 mm 2 mps 725 mmHg 63%
    01:00 +15°C° 0 mm 1 mps 725 mmHg 63%
    02:00 +14°C° 0 mm 1 mps 725 mmHg 64%
    03:00 +14°C° 0 mm 1 mps 724 mmHg 65%
    04:00 +14°C° 0 mm 1 mps 724 mmHg 66%
    05:00 +15°C° 0 mm 1 mps 724 mmHg 61%
    06:00 +16°C° 0 mm 1 mps 725 mmHg 57%
    07:00 +17°C° 0 mm 0 mps 725 mmHg 52%
    08:00 +20°C° 0 mm 1 mps 725 mmHg 48%
    09:00 +20°C° 0 mm 2 mps 725 mmHg 44%
    10:00 +23°C° 0 mm 2 mps 726 mmHg 40%
    11:00 +22°C° 0 mm 3 mps 725 mmHg 39%
    12:00 +24°C° 0 mm 3 mps 725 mmHg 39%
    13:00 +23°C° 0 mm 4 mps 725 mmHg 39%
    14:00 +23°C° 0 mm 4 mps 725 mmHg 41%
    15:00 +22°C° 0 mm 4 mps 724 mmHg 43%
    16:00 +22°C° 0 mm 4 mps 724 mmHg 45%
    17:00 +20°C° 0 mm 3 mps 724 mmHg 51%
    18:00 +19°C° 0 mm 2 mps 724 mmHg 57%
    19:00 +18°C° 0 mm 1 mps 723 mmHg 62%
    20:00 +18°C° 0 mm 1 mps 724 mmHg 63%
    21:00 +16°C° 0 mm 1 mps 724 mmHg 64%
    22:00 +16°C° 0 mm 1 mps 724 mmHg 66%
    23:00 +16°C° 0 mm 1 mps 724 mmHg 63%

    25 May, Saturday

    Time Temperature Precipitation Wind Pressure Humidity
    00:00 +16°C° 0 mm 1 mps 723 mmHg 61%
    01:00 +16°C° 0 mm 1 mps 723 mmHg 59%
    02:00 +16°C° 0 mm 1 mps 723 mmHg 58%
    03:00 +16°C° 0 mm 0 mps 723 mmHg 58%
    04:00 +16°C° 0 mm 0 mps 723 mmHg 57%
    05:00 +18°C° 0 mm 1 mps 723 mmHg 56%
    06:00 +19°C° 0 mm 1 mps 723 mmHg 54%
    07:00 +20°C° 0 mm 1 mps 723 mmHg 53%
    08:00 +19°C° 0.3 mm 2 mps 723 mmHg 56%
    09:00 +18°C° 0.3 mm 3 mps 724 mmHg 58%
    10:00 +18°C° 0.3 mm 3 mps 724 mmHg 61%
    11:00 +18°C° 0.4 mm 3 mps 724 mmHg 62%
    12:00 +18°C° 0.4 mm 2 mps 724 mmHg 63%
    13:00 +18°C° 0.4 mm 2 mps 724 mmHg 64%
    14:00 +18°C° 0.1 mm 3 mps 723 mmHg 63%
    15:00 +17°C° 0.1 mm 5 mps 722 mmHg 62%
    16:00 +17°C° 0.1 mm 6 mps 722 mmHg 60%
    17:00 +17°C° 0 mm 6 mps 722 mmHg 62%
    18:00 +16°C° 0 mm 6 mps 722 mmHg 64%
    19:00 +16°C° 0 mm 6 mps 721 mmHg 66%
    20:00 +16°C° 0 mm 5 mps 722 mmHg 69%
    21:00 +15°C° 0 mm 5 mps 722 mmHg 72%
    22:00 +15°C° 0 mm 5 mps 722 mmHg 74%
    23:00 +15°C° 0 mm 5 mps 722 mmHg 76%

    26 May, Sunday

    Time Temperature Precipitation Wind Pressure Humidity
    00:00 +15°C° 0 mm 5 mps 721 mmHg 77%
    01:00 +14°C° 0 mm 5 mps 721 mmHg 78%
    02:00 +14°C° 0.1 mm 5 mps 721 mmHg 78%
    03:00 +14°C° 0.1 mm 5 mps 720 mmHg 78%
    04:00 +14°C° 0.1 mm 5 mps 720 mmHg 78%
    05:00 +15°C° 0.3 mm 5 mps 720 mmHg 77%
    06:00 +15°C° 0.3 mm 6 mps 720 mmHg 76%
    07:00 +16°C° 0.3 mm 6 mps 720 mmHg 75%
    08:00 +17°C° 0.3 mm 7 mps 720 mmHg 71%
    09:00 +17°C° 0.3 mm 7 mps 721 mmHg 68%
    10:00 +18°C° 0.3 mm 8 mps 721 mmHg 65%
    11:00 +20°C° 0 mm 7 mps 721 mmHg 64%
    12:00 +20°C° 0 mm 7 mps 721 mmHg 64%
    13:00 +20°C° 0 mm 7 mps 721 mmHg 63%
    14:00 +20°C° 0.3 mm 7 mps 720 mmHg 65%
    15:00 +18°C° 0.3 mm 8 mps 720 mmHg 67%
    16:00 +18°C° 0.3 mm 9 mps 719 mmHg 70%
    17:00 +17°C° 0 mm 9 mps 719 mmHg 74%
    18:00 +16°C° 0 mm 9 mps 719 mmHg 78%
    19:00 +16°C° 0 mm 9 mps 719 mmHg 82%
    20:00 +15°C° 0 mm 8 mps 719 mmHg 84%
    21:00 +15°C° 0 mm 7 mps 719 mmHg 86%
    22:00 +15°C° 0 mm 7 mps 720 mmHg 88%
    23:00 +15°C° 0.1 mm 6 mps 719 mmHg 88%

    27 May, Monday

    Time Temperature Precipitation Wind Pressure Humidity
    00:00 +15°C° 0.1 mm 6 mps 719 mmHg 88%
    01:00 +15°C° 0.1 mm 6 mps 718 mmHg 89%
    02:00 +15°C° 0.2 mm 6 mps 718 mmHg 89%
    03:00 +15°C° 0.2 mm 5 mps 718 mmHg 90%
    04:00 +14°C° 0.2 mm 5 mps 718 mmHg 91%
    05:00 +15°C° 0.1 mm 5 mps 718 mmHg 89%
    06:00 +17°C° 0.1 mm 4 mps 718 mmHg 87%
    07:00 +17°C° 0.1 mm 4 mps 718 mmHg 84%
    08:00 +18°C° 0 mm 4 mps 718 mmHg 80%
    09:00 +19°C° 0 mm 3 mps 719 mmHg 75%
    10:00 +21°C° 0 mm 2 mps 719 mmHg 71%
    11:00 +20°C° 0.1 mm 2 mps 719 mmHg 74%
    12:00 +19°C° 0.1 mm 3 mps 719 mmHg 77%
    13:00 +18°C° 0.1 mm 3 mps 719 mmHg 79%
    14:00 +19°C° 0 mm 4 mps 719 mmHg 75%
    15:00 +20°C° 0 mm 4 mps 719 mmHg 71%
    16:00 +21°C° 0 mm 5 mps 719 mmHg 66%
    17:00 +19°C° 0 mm 5 mps 719 mmHg 71%
    18:00 +17°C° 0 mm 5 mps 719 mmHg 75%
    19:00 +16°C° 0 mm 5 mps 719 mmHg 80%
    20:00 +15°C° 0 mm 5 mps 720 mmHg 83%
    21:00 +15°C° 0 mm 4 mps 720 mmHg 87%
    22:00 +14°C° 0 mm 4 mps 720 mmHg 90%
    23:00 +14°C° 0 mm 5 mps 720 mmHg 90%
    Show more